{"data":{"norad_id":54070,"epoch":"2026-05-24T23:13:16.801248Z","epoch_age_seconds":74865,"freshness":"FRESH","line1":"1 54070U 22136V   26144.96755557  .00000981  00000+0  79703-4 0  9993","line2":"2 54070  53.2126   1.3912 0001128  86.8855 273.2266 15.08829789198367","mean_motion":15.08829789,"eccentricity":0.0001128,"inclination_deg":53.2126,"raan_deg":1.3912,"arg_perigee_deg":86.8855,"mean_anomaly_deg":273.2266,"bstar":7.9703e-5,"rev_number":19836,"period_min":95.438200551063,"perigee_km":538.99425965366,"apogee_km":540.55494051064,"semimajor_km":6917.9116000821,"source":"CELESTRAK","updated_at":"2026-05-25T13:38:17.651185Z"}}